DLH542 EDDF-SKBO

Flight info

Callsign DLH542
Flight time N/A
Altitude 34000
Route SOBRA7D SOBRA Y180 DIK UN857 TOLVU/N0464F350 DCT RAPOR DCT GIMER DCT ESTOC UT300 ELCOB/N0457F340 UT300 SENLO UN502 JSY DCT LIZAD DCT GAPLI/M080F360 DCT SOMAX DCT 49N020W 45N030W 39N040W/M080F380 31N050W 27N053W 24N055W DCT BNJEE/N0459F400 DCT PPR DCT ITEGO UP533 PBL DCT KIKAS DCT DOPLO DOPLO5E
Aircraft A343/H-SDE2E3FGHIJ4J5M1RWXY/LB1D1

Departure

Time 2026-05-05 07:04
Airport Frankfurt Main Airport (EDDF)

Arrival

Time N/A
Airport El Dorado International Airport (SKBO)
Time Latitude Longitude Altitude Speed Heading
2026-05-05 06:28 50.04653 8.57056 360 ft 0 kts 91°
2026-05-05 06:52 50.04653 8.57034 364 ft 4 kts 91°
2026-05-05 06:52 50.04653 8.56998 360 ft 2 kts 91°
2026-05-05 06:52 50.04657 8.56962 364 ft 4 kts 134°
2026-05-05 06:53 50.04677 8.56951 366 ft 4 kts 201°
2026-05-05 06:53 50.04701 8.56968 368 ft 4 kts 204°
2026-05-05 06:53 50.04725 8.56985 366 ft 4 kts 204°
2026-05-05 06:53 50.04750 8.57002 368 ft 4 kts 204°
2026-05-05 06:54 50.04774 8.57019 367 ft 3 kts 204°
2026-05-05 06:54 50.04778 8.57022 367 ft 0 kts 204°
2026-05-05 06:56 50.04778 8.57021 367 ft 0 kts 204°
2026-05-05 06:56 50.04766 8.57013 366 ft 5 kts 204°
2026-05-05 06:56 50.04712 8.56977 363 ft 11 kts 204°
2026-05-05 06:57 50.04634 8.56925 365 ft 12 kts 202°
2026-05-05 06:57 50.04559 8.56893 365 ft 9 kts 193°
2026-05-05 06:57 50.04504 8.56873 365 ft 8 kts 192°
2026-05-05 06:57 50.04446 8.56857 369 ft 9 kts 190°
2026-05-05 06:58 50.04382 8.56839 369 ft 9 kts 190°
2026-05-05 06:58 50.04350 8.56830 366 ft 0 kts 191°
2026-05-05 06:59 50.04345 8.56829 366 ft 4 kts 191°
2026-05-05 06:59 50.04291 8.56826 371 ft 10 kts 153°
2026-05-05 07:00 50.04288 8.56947 369 ft 15 kts 71°
2026-05-05 07:00 50.04330 8.57115 368 ft 16 kts 68°
2026-05-05 07:00 50.04367 8.57275 369 ft 15 kts 70°
2026-05-05 07:00 50.04403 8.57425 367 ft 15 kts 70°
2026-05-05 07:01 50.04438 8.57568 370 ft 13 kts 70°
2026-05-05 07:01 50.04473 8.57722 373 ft 19 kts 70°
2026-05-05 07:01 50.04521 8.57920 370 ft 19 kts 68°
2026-05-05 07:01 50.04567 8.58112 370 ft 19 kts 70°
2026-05-05 07:02 50.04609 8.58282 376 ft 15 kts 69°
2026-05-05 07:02 50.04641 8.58428 372 ft 15 kts 71°
2026-05-05 07:02 50.04643 8.58561 379 ft 11 kts 141°
2026-05-05 07:02 50.04576 8.58601 378 ft 9 kts 159°
2026-05-05 07:03 50.04524 8.58632 374 ft 7 kts 159°
2026-05-05 07:03 50.04498 8.58617 374 ft 3 kts 235°
2026-05-05 07:03 50.04466 8.58509 376 ft 27 kts 246°
2026-05-05 07:03 50.04333 8.57976 370 ft 77 kts 250°
2026-05-05 07:04 50.04100 8.56972 371 ft 119 kts 250°
2026-05-05 07:04 50.03769 8.55585 355 ft 154 kts 250°
2026-05-05 07:04 50.03366 8.53918 584 ft 166 kts 249°
2026-05-05 07:04 50.02966 8.52255 1014 ft 166 kts 248°
2026-05-05 07:05 50.02234 8.50827 1326 ft 172 kts 216°
2026-05-05 07:05 50.01181 8.49853 1626 ft 185 kts 203°
2026-05-05 07:05 49.99926 8.49133 1948 ft 198 kts 199°
2026-05-05 07:05 49.98593 8.48429 2387 ft 205 kts 198°
2026-05-05 07:06 49.97240 8.47727 2954 ft 205 kts 199°